| time (UTC) | temp F | wind direction | speed MPH | gust MPH | rain 1hr in | rain 24hr in | rain mn in | humidity % | barometer mb |
| 20260507112539 | 47 | 62 | 2.0 | 3.0 | 0.00 | 0.00 | 0.00 | 99 | 1020.2 |
| 20260507112035 | 47 | 62 | 2.0 | 3.0 | 0.00 | 0.00 | 0.00 | 99 | 1020.2 |
| 20260507111532 | 47 | 57 | 2.0 | 3.0 | 0.00 | 0.00 | 0.00 | 99 | 1020.2 |
| 20260507111029 | 47 | 46 | 1.0 | 2.0 | 0.00 | 0.00 | 0.00 | 99 | 1020.2 |
| 20260507110525 | 48 | 102 | 2.0 | 2.0 | 0.00 | 0.00 | 0.00 | 99 | 1020.2 |
| 20260507110022 | 48 | 123 | 2.0 | 2.0 | 0.00 | 0.00 | 0.00 | 99 | 1020.2 |
| 20260507105519 | 48 | 87 | 1.0 | 2.0 | 0.00 | 0.00 | 0.00 | 99 | 1020.4 |
| 20260507105015 | 47 | 56 | 2.0 | 2.0 | 0.00 | 0.00 | 0.00 | 99 | 1020.4 |
| 20260507104513 | 47 | 108 | 2.0 | 2.0 | 0.00 | 0.00 | 0.00 | 99 | 1020.4 |
| 20260507104009 | 47 | 56 | 2.0 | 2.0 | 0.00 | 0.00 | 0.00 | 99 | 1020.1 |
| 20260507103505 | 47 | 38 | 0.0 | 2.0 | 0.00 | 0.00 | 0.00 | 99 | 1020.2 |
| 20260507103002 | 47 | 57 | 0.0 | 1.0 | 0.00 | 0.00 | 0.00 | 99 | 1020.3 |
| 20260507102459 | 47 | 47 | 2.0 | 3.0 | 0.00 | 0.00 | 0.00 | 99 | 1020.4 |
| 20260507101954 | 47 | 35 | 2.0 | 2.0 | 0.00 | 0.00 | 0.00 | 99 | 1020.3 |
| 20260507101449 | 47 | 42 | 2.0 | 3.0 | 0.00 | 0.00 | 0.00 | 99 | 1020.2 |
| 20260507100947 | 47 | 43 | 2.0 | 3.0 | 0.00 | 0.00 | 0.00 | 99 | 1020.2 |
| 20260507100444 | 47 | 69 | 2.0 | 3.0 | 0.00 | 0.00 | 0.00 | 99 | 1020.3 |
| 20260507095942 | 47 | 93 | 2.0 | 2.0 | 0.00 | 0.00 | 0.00 | 99 | 1020.2 |
| 20260507095440 | 47 | 61 | 0.0 | 2.0 | 0.00 | 0.00 | 0.00 | 99 | 1020.4 |
| 20260507094936 | 47 | 33 | 2.0 | 3.0 | 0.00 | 0.00 | 0.00 | 99 | 1020.4 |
| 20260507094432 | 47 | 99 | 2.0 | 2.0 | 0.00 | 0.00 | 0.00 | 99 | 1020.4 |
| 20260507093929 | 47 | 81 | 1.0 | 2.0 | 0.00 | 0.00 | 0.00 | 99 | 1020.2 |
| 20260507093427 | 47 | 105 | 2.0 | 2.0 | 0.00 | 0.00 | 0.00 | 99 | 1020.4 |
| 20260507092925 | 47 | 107 | 2.0 | 2.0 | 0.00 | 0.00 | 0.00 | 99 | 1020.4 |
| 20260507092421 | 48 | 57 | 1.0 | 3.0 | 0.00 | 0.00 | 0.00 | 99 | 1020.5 |
| 20260507091917 | 48 | 104 | 2.0 | 2.0 | 0.00 | 0.00 | 0.00 | 99 | 1020.5 |
| 20260507091414 | 48 | 73 | 0.0 | 1.0 | 0.00 | 0.00 | 0.00 | 99 | 1020.5 |
| 20260507090909 | 48 | 123 | 1.0 | 1.0 | 0.00 | 0.00 | 0.00 | 99 | 1020.5 |
| 20260507090406 | 48 | 135 | 0.0 | 1.0 | 0.00 | 0.00 | 0.00 | 99 | 1020.5 |
| 20260507085903 | 48 | 128 | 2.0 | 2.0 | 0.00 | 0.00 | 0.00 | 99 | 1020.5 |
| 20260507085400 | 48 | 77 | 1.0 | 2.0 | 0.00 | 0.00 | 0.00 | 99 | 1020.6 |
| 20260507084857 | 48 | 102 | 2.0 | 2.0 | 0.00 | 0.00 | 0.00 | 99 | 1020.5 |
| 20260507084354 | 48 | 111 | 2.0 | 3.0 | 0.00 | 0.00 | 0.00 | 99 | 1020.5 |
| 20260507083851 | 49 | 123 | 3.0 | 3.0 | 0.00 | 0.00 | 0.00 | 99 | 1020.5 |
| 20260507083347 | 49 | 96 | 2.0 | 2.0 | 0.00 | 0.00 | 0.00 | 99 | 1020.5 |
| 20260507082843 | 49 | 97 | 1.0 | 2.0 | 0.00 | 0.00 | 0.00 | 99 | 1020.4 |
| 20260507082339 | 49 | 125 | 1.0 | 3.0 | 0.00 | 0.00 | 0.00 | 99 | 1020.4 |
| 20260507081837 | 49 | 135 | 2.0 | 2.0 | 0.00 | 0.00 | 0.00 | 99 | 1020.4 |
| 20260507081332 | 49 | 55 | 0.0 | 1.0 | 0.00 | 0.00 | 0.00 | 99 | 1020.5 |
| 20260507080829 | 49 | 30 | 0.0 | 1.0 | 0.00 | 0.00 | 0.00 | 99 | 1020.3 |
| 20260507080325 | 49 | 98 | 1.0 | 1.0 | 0.00 | 0.00 | 0.00 | 99 | 1020.4 |
| 20260507075821 | 49 | 66 | 0.0 | 2.0 | 0.00 | 0.00 | 0.00 | 99 | 1020.4 |
| 20260507075317 | 49 | 107 | 2.0 | 2.0 | 0.00 | 0.00 | 0.00 | 99 | 1020.3 |
| 20260507074814 | 49 | 93 | 1.0 | 1.0 | 0.00 | 0.00 | 0.00 | 99 | 1020.4 |
| 20260507074312 | 49 | 117 | 0.0 | 2.0 | 0.00 | 0.00 | 0.00 | 99 | 1020.4 |
| 20260507073809 | 49 | 107 | 2.0 | 2.0 | 0.00 | 0.00 | 0.00 | 99 | 1020.2 |
| 20260507073305 | 49 | 94 | 1.0 | 2.0 | 0.00 | 0.00 | 0.00 | 99 | 1020.2 |
| 20260507072802 | 49 | 84 | 1.0 | 2.0 | 0.00 | 0.00 | 0.00 | 99 | 1020.2 |
| 20260507072300 | 49 | 61 | 1.0 | 2.0 | 0.00 | 0.00 | 0.00 | 99 | 1020.0 |
| 20260507071757 | 49 | 58 | 2.0 | 2.0 | 0.02 | 0.00 | 0.00 | 99 | 1020.2 |
| 20260507071253 | 49 | 46 | 2.0 | 2.0 | 0.02 | 0.00 | 0.00 | 99 | 1020.2 |
| 20260507070750 | 49 | 48 | 2.0 | 2.0 | 0.00 | 0.00 | 0.00 | 99 | 1020.2 |
| 20260507070247 | 49 | 102 | 0.0 | 2.0 | 0.00 | 0.00 | 0.00 | 99 | 1020.3 |
| 20260507065744 | 49 | 120 | 0.0 | 1.0 | 0.00 | 0.10 | 0.10 | 99 | 1020.2 |
| 20260507065241 | 49 | 101 | 0.0 | 1.0 | 0.00 | 0.10 | 0.10 | 99 | 1020.2 |
| 20260507064738 | 49 | 98 | 1.0 | 2.0 | 0.00 | 0.10 | 0.10 | 99 | 1020.2 |
| 20260507064237 | 49 | 107 | 2.0 | 2.0 | 0.00 | 0.10 | 0.10 | 99 | 1020.1 |
| 20260507063734 | 49 | 113 | 1.0 | 2.0 | 0.00 | 0.10 | 0.10 | 99 | 1020.2 |
| 20260507063230 | 49 | 67 | 1.0 | 2.0 | 0.00 | 0.10 | 0.10 | 99 | 1020.2 |
| 20260507062727 | 49 | 62 | 1.0 | 2.0 | 0.00 | 0.10 | 0.10 | 99 | 1020.2 |
| 20260507062225 | 49 | 82 | 1.0 | 2.0 | 0.00 | 0.10 | 0.10 | 99 | 1020.4 |
| 20260507061723 | 49 | 55 | 0.0 | 1.0 | 0.00 | 0.10 | 0.10 | 99 | 1020.0 |
| 20260507061221 | 49 | 60 | 0.0 | 2.0 | 0.00 | 0.10 | 0.10 | 99 | 1020.4 |
| 20260507060718 | 49 | 105 | 1.0 | 2.0 | 0.00 | 0.10 | 0.10 | 99 | 1020.3 |
| 20260507060215 | 49 | 77 | 1.0 | 1.0 | 0.00 | 0.10 | 0.10 | 99 | 1020.3 |
| 20260507055710 | 49 | 117 | 0.0 | 1.0 | 0.00 | 0.10 | 0.10 | 99 | 1020.2 |
| 20260507055207 | 49 | 89 | 0.0 | 1.0 | 0.00 | 0.10 | 0.10 | 99 | 1020.1 |
| 20260507054703 | 49 | 44 | 0.0 | 1.0 | 0.00 | 0.10 | 0.10 | 99 | 1020.3 |
| 20260507054159 | 49 | 64 | 1.0 | 1.0 | 0.00 | 0.10 | 0.10 | 99 | 1020.3 |
| 20260507053658 | 49 | 80 | 1.0 | 2.0 | 0.00 | 0.10 | 0.10 | 99 | 1020.3 |
| 20260507053155 | 49 | 80 | 1.0 | 2.0 | 0.00 | 0.10 | 0.10 | 99 | 1020.4 |
| 20260507052654 | 49 | 103 | 1.0 | 2.0 | 0.00 | 0.10 | 0.10 | 99 | 1020.3 |
| 20260507052149 | 49 | 89 | 1.0 | 2.0 | 0.00 | 0.10 | 0.10 | 99 | 1020.5 |
| 20260507051647 | 49 | 64 | 1.0 | 2.0 | 0.00 | 0.10 | 0.10 | 99 | 1020.5 |
| 20260507051143 | 49 | 70 | 2.0 | 2.0 | 0.00 | 0.10 | 0.10 | 99 | 1020.4 |
| 20260507050641 | 49 | 92 | 2.0 | 2.0 | 0.00 | 0.10 | 0.10 | 99 | 1020.5 |
| 20260507050137 | 49 | 69 | 1.0 | 2.0 | 0.00 | 0.10 | 0.10 | 99 | 1020.4 |
| 20260507045634 | 49 | 69 | 1.0 | 2.0 | 0.00 | 0.10 | 0.10 | 99 | 1020.5 |
| 20260507045131 | 49 | 24 | 0.0 | 1.0 | 0.00 | 0.10 | 0.10 | 99 | 1020.5 |
| 20260507044628 | 49 | 57 | 1.0 | 2.0 | 0.00 | 0.10 | 0.10 | 99 | 1020.5 |
| 20260507044125 | 50 | 68 | 2.0 | 2.0 | 0.00 | 0.10 | 0.10 | 99 | 1020.4 |
| 20260507043621 | 50 | 36 | 1.0 | 2.0 | 0.00 | 0.10 | 0.10 | 99 | 1020.4 |
| 20260507043118 | 50 | 76 | 0.0 | 1.0 | 0.00 | 0.10 | 0.10 | 99 | 1020.3 |
| 20260507042614 | 50 | 51 | 0.0 | 2.0 | 0.00 | 0.10 | 0.10 | 99 | 1020.3 |
| 20260507042109 | 50 | 113 | 1.0 | 1.0 | 0.00 | 0.10 | 0.10 | 99 | 1020.4 |
| 20260507041606 | 50 | 107 | 2.0 | 2.0 | 0.00 | 0.10 | 0.10 | 99 | 1020.2 |
| 20260507041103 | 50 | 120 | 2.0 | 2.0 | 0.00 | 0.10 | 0.10 | 99 | 1020.2 |
| 20260507040600 | 50 | 110 | 2.0 | 2.0 | 0.00 | 0.10 | 0.10 | 99 | 1020.3 |
| 20260507040056 | 50 | 113 | 2.0 | 2.0 | 0.00 | 0.10 | 0.10 | 99 | 1020.4 |
| 20260507035552 | 50 | 110 | 2.0 | 2.0 | 0.00 | 0.10 | 0.10 | 99 | 1020.3 |
| 20260507035049 | 50 | 114 | 1.0 | 2.0 | 0.00 | 0.10 | 0.10 | 99 | 1020.2 |
| 20260507034545 | 50 | 110 | 2.0 | 2.0 | 0.00 | 0.10 | 0.10 | 99 | 1020.2 |
| 20260507034044 | 50 | 112 | 1.0 | 2.0 | 0.00 | 0.10 | 0.10 | 99 | 1020.1 |
| 20260507033541 | 50 | 112 | 2.0 | 2.0 | 0.00 | 0.10 | 0.10 | 99 | 1020.1 |
| 20260507033038 | 50 | 122 | 1.0 | 2.0 | 0.00 | 0.10 | 0.10 | 99 | 1020.2 |
| 20260507032535 | 50 | 120 | 1.0 | 1.0 | 0.02 | 0.10 | 0.10 | 99 | 1019.9 |
| 20260507032031 | 50 | 93 | 1.0 | 2.0 | 0.02 | 0.10 | 0.10 | 99 | 1020.0 |
| 20260507031527 | 50 | 117 | 2.0 | 2.0 | 0.00 | 0.09 | 0.09 | 99 | 1019.9 |
| 20260507031025 | 50 | 117 | 2.0 | 2.0 | 0.00 | 0.09 | 0.09 | 99 | 1019.8 |
| 20260507030522 | 50 | 116 | 2.0 | 2.0 | 0.00 | 0.09 | 0.09 | 99 | 1019.9 |
| 20260507030020 | 50 | 125 | 2.0 | 3.0 | 0.00 | 0.09 | 0.09 | 99 | 1019.9 |
| 20260507025516 | 50 | 118 | 2.0 | 4.0 | 0.00 | 0.09 | 0.09 | 99 | 1019.9 |
| 20260507025009 | 51 | 117 | 2.0 | 2.0 | 0.00 | 0.09 | 0.09 | 99 | 1020.0 |
| 20260507024506 | 51 | 97 | 2.0 | 2.0 | 0.00 | 0.09 | 0.09 | 99 | 1020.0 |
| 20260507024001 | 51 | 136 | 2.0 | 2.0 | 0.00 | 0.09 | 0.09 | 99 | 1019.9 |
| 20260507023458 | 51 | 125 | 2.0 | 3.0 | 0.00 | 0.09 | 0.09 | 99 | 1019.8 |
| 20260507022955 | 51 | 112 | 3.0 | 3.0 | 0.00 | 0.09 | 0.09 | 99 | 1019.8 |
| 20260507022452 | 51 | 89 | 1.0 | 3.0 | 0.00 | 0.09 | 0.09 | 99 | 1019.9 |
| 20260507021947 | 51 | 113 | 3.0 | 3.0 | 0.00 | 0.09 | 0.09 | 99 | 1019.8 |
| 20260507021443 | 51 | 130 | 2.0 | 2.0 | 0.00 | 0.09 | 0.09 | 99 | 1020.0 |
| 20260507020941 | 51 | 118 | 2.0 | 2.0 | 0.00 | 0.09 | 0.09 | 99 | 1020.0 |
| 20260507020437 | 51 | 132 | 4.0 | 4.0 | 0.00 | 0.09 | 0.09 | 99 | 1019.9 |
| 20260507015934 | 51 | 104 | 1.0 | 2.0 | 0.00 | 0.09 | 0.09 | 99 | 1019.9 |
| 20260507015433 | 51 | 117 | 1.0 | 1.0 | 0.00 | 0.09 | 0.09 | 99 | 1019.9 |
| 20260507014929 | 51 | 76 | 1.0 | 3.0 | 0.00 | 0.09 | 0.09 | 99 | 1019.8 |
| 20260507014426 | 51 | 97 | 0.0 | 2.0 | 0.00 | 0.09 | 0.09 | 99 | 1019.9 |
| 20260507013923 | 51 | 113 | 0.0 | 2.0 | 0.00 | 0.09 | 0.09 | 99 | 1019.9 |
| 20260507013420 | 51 | 121 | 2.0 | 3.0 | 0.00 | 0.09 | 0.09 | 99 | 1020.1 |
| 20260507012918 | 51 | 110 | 3.0 | 3.0 | 0.00 | 0.09 | 0.09 | 99 | 1020.1 |
| 20260507012414 | 51 | 110 | 2.0 | 3.0 | 0.00 | 0.09 | 0.09 | 99 | 1019.8 |
| 20260507011910 | 51 | 149 | 2.0 | 3.0 | 0.00 | 0.09 | 0.09 | 99 | 1019.8 |
| 20260507011407 | 51 | 109 | 0.0 | 2.0 | 0.00 | 0.09 | 0.09 | 99 | 1019.8 |
| 20260507010902 | 51 | 89 | 0.0 | 1.0 | 0.00 | 0.09 | 0.09 | 99 | 1020.1 |
| 20260507010357 | 51 | 49 | 0.0 | 2.0 | 0.00 | 0.09 | 0.09 | 99 | 1020.0 |
| 20260507005855 | 51 | 80 | 0.0 | 1.0 | 0.00 | 0.09 | 0.09 | 99 | 1019.9 |
| 20260507005351 | 51 | 89 | 0.0 | 2.0 | 0.00 | 0.09 | 0.09 | 99 | 1020.0 |
| 20260507004848 | 51 | 107 | 3.0 | 3.0 | 0.00 | 0.09 | 0.09 | 99 | 1019.9 |
| 20260507004345 | 51 | 143 | 2.0 | 2.0 | 0.00 | 0.09 | 0.09 | 99 | 1019.8 |
| 20260507003842 | 51 | 110 | 2.0 | 3.0 | 0.00 | 0.09 | 0.09 | 99 | 1020.0 |
| 20260507003338 | 51 | 114 | 3.0 | 4.0 | 0.00 | 0.09 | 0.09 | 99 | 1020.0 |
| 20260507002833 | 51 | 143 | 2.0 | 4.0 | 0.00 | 0.09 | 0.09 | 99 | 1019.7 |
| 20260507002329 | 51 | 135 | 2.0 | 2.0 | 0.00 | 0.09 | 0.09 | 99 | 1020.0 |
| 20260507001827 | 51 | 121 | 2.0 | 3.0 | 0.00 | 0.09 | 0.09 | 99 | 1020.1 |
| 20260507001323 | 51 | 114 | 2.0 | 3.0 | 0.00 | 0.09 | 0.09 | 99 | 1019.9 |
| 20260507000820 | 51 | 139 | 2.0 | 3.0 | 0.00 | 0.09 | 0.09 | 99 | 1019.9 |
| 20260507000316 | 51 | 144 | 3.0 | 4.0 | 0.00 | 0.09 | 0.09 | 99 | 1019.8 |
| 20260506235812 | 51 | 121 | 2.0 | 4.0 | 0.00 | 0.09 | 0.09 | 99 | 1020.0 |
| 20260506235308 | 51 | 101 | 2.0 | 3.0 | 0.00 | 0.09 | 0.09 | 99 | 1020.1 |
| 20260506234804 | 51 | 119 | 2.0 | 4.0 | 0.00 | 0.09 | 0.09 | 99 | 1019.9 |
| 20260506234302 | 51 | 124 | 2.0 | 3.0 | 0.00 | 0.09 | 0.09 | 99 | 1019.9 |
| 20260506233800 | 51 | 112 | 2.0 | 3.0 | 0.00 | 0.09 | 0.09 | 99 | 1019.9 |
| 20260506233256 | 51 | 125 | 2.0 | 3.0 | 0.00 | 0.09 | 0.09 | 99 | 1020.0 |
| 20260506232747 | 51 | 115 | 2.0 | 3.0 | 0.02 | 0.09 | 0.09 | 99 | 1019.7 |
| 20260506232242 | 50 | 160 | 2.0 | 3.0 | 0.02 | 0.09 | 0.09 | 99 | 1019.8 |
| 20260506231740 | 50 | 133 | 2.0 | 4.0 | 0.00 | 0.09 | 0.09 | 99 | 1019.9 |
| 20260506231238 | 51 | 133 | 3.0 | 3.0 | 0.00 | 0.09 | 0.09 | 99 | 1019.9 |
| 20260506230734 | 51 | 99 | 2.0 | 3.0 | 0.00 | 0.09 | 0.09 | 99 | 1020.0 |
| 20260506230230 | 51 | 66 | 0.0 | 2.0 | 0.00 | 0.09 | 0.09 | 99 | 1020.1 |
| 20260506225727 | 51 | 115 | 4.0 | 4.0 | 0.00 | 0.09 | 0.09 | 99 | 1020.1 |
| 20260506225224 | 51 | 124 | 2.0 | 3.0 | 0.00 | 0.09 | 0.09 | 99 | 1020.0 |
| 20260506224720 | 51 | 102 | 3.0 | 3.0 | 0.00 | 0.09 | 0.09 | 99 | 1020.3 |
| 20260506224218 | 51 | 158 | 1.0 | 4.0 | 0.00 | 0.09 | 0.09 | 99 | 1020.2 |
| 20260506223714 | 51 | 135 | 1.0 | 4.0 | 0.00 | 0.09 | 0.09 | 99 | 1020.1 |
| 20260506223210 | 51 | 133 | 2.0 | 3.0 | 0.00 | 0.09 | 0.09 | 99 | 1020.2 |
| 20260506222707 | 51 | 110 | 3.0 | 3.0 | 0.02 | 0.09 | 0.09 | 99 | 1020.0 |
| 20260506222202 | 51 | 98 | 1.0 | 3.0 | 0.02 | 0.09 | 0.09 | 99 | 1020.0 |
| 20260506221701 | 51 | 153 | 2.0 | 3.0 | 0.00 | 0.09 | 0.09 | 99 | 1020.2 |
| 20260506221158 | 51 | 118 | 2.0 | 4.0 | 0.00 | 0.09 | 0.09 | 99 | 1020.1 |
| 20260506220655 | 51 | 150 | 2.0 | 4.0 | 0.00 | 0.09 | 0.09 | 99 | 1020.1 |
| 20260506220150 | 51 | 126 | 2.0 | 4.0 | 0.00 | 0.09 | 0.09 | 99 | 1020.3 |
| 20260506215647 | 51 | 119 | 2.0 | 3.0 | 0.00 | 0.09 | 0.09 | 99 | 1020.1 |
| 20260506215142 | 51 | 150 | 2.0 | 5.0 | 0.02 | 0.09 | 0.09 | 99 | 1020.3 |
| 20260506214639 | 51 | 157 | 3.0 | 4.0 | 0.00 | 0.08 | 0.08 | 99 | 1020.2 |
| 20260506214137 | 51 | 115 | 3.0 | 4.0 | 0.00 | 0.08 | 0.08 | 99 | 1020.1 |
| 20260506213635 | 51 | 137 | 3.0 | 4.0 | 0.00 | 0.08 | 0.08 | 99 | 1020.3 |
| 20260506213132 | 51 | 125 | 3.0 | 4.0 | 0.00 | 0.08 | 0.08 | 99 | 1020.2 |
| 20260506212629 | 51 | 109 | 3.0 | 4.0 | 0.00 | 0.08 | 0.08 | 99 | 1020.3 |
| 20260506212124 | 51 | 156 | 2.0 | 4.0 | 0.00 | 0.08 | 0.08 | 99 | 1020.2 |
| 20260506211619 | 51 | 110 | 3.0 | 3.0 | 0.00 | 0.08 | 0.08 | 99 | 1020.3 |
| 20260506211117 | 51 | 87 | 1.0 | 3.0 | 0.00 | 0.08 | 0.08 | 99 | 1020.0 |
| 20260506210614 | 50 | 137 | 1.0 | 5.0 | 0.00 | 0.08 | 0.08 | 99 | 1020.3 |
| 20260506210110 | 50 | 130 | 3.0 | 3.0 | 0.00 | 0.08 | 0.08 | 99 | 1020.2 |
| 20260506205607 | 51 | 114 | 3.0 | 3.0 | 0.02 | 0.08 | 0.08 | 99 | 1020.2 |
| 20260506205102 | 51 | 156 | 2.0 | 4.0 | 0.02 | 0.08 | 0.08 | 99 | 1019.9 |
| 20260506204600 | 51 | 162 | 4.0 | 4.0 | 0.00 | 0.08 | 0.08 | 99 | 1020.2 |
| 20260506204057 | 50 | 128 | 2.0 | 3.0 | 0.00 | 0.08 | 0.08 | 99 | 1020.2 |
| 20260506203555 | 50 | 162 | 3.0 | 4.0 | 0.02 | 0.08 | 0.08 | 99 | 1020.1 |
| 20260506203051 | 50 | 141 | 2.0 | 3.0 | 0.00 | 0.07 | 0.07 | 99 | 1020.2 |
| 20260506202549 | 50 | 115 | 3.0 | 5.0 | 0.00 | 0.07 | 0.07 | 99 | 1020.0 |
| 20260506202045 | 51 | 112 | 2.0 | 2.0 | 0.00 | 0.07 | 0.07 | 99 | 1020.1 |
| 20260506201543 | 51 | 157 | 4.0 | 4.0 | 0.00 | 0.07 | 0.07 | 99 | 1020.1 |
| 20260506201039 | 51 | 91 | 2.0 | 3.0 | 0.00 | 0.07 | 0.07 | 99 | 1019.9 |
| 20260506200535 | 51 | 114 | 2.0 | 4.0 | 0.00 | 0.07 | 0.07 | 99 | 1019.9 |
| 20260506200032 | 51 | 134 | 2.0 | 3.0 | 0.00 | 0.07 | 0.07 | 99 | 1020.1 |